Regional Weather Roundup
Issued by NWS

Home | Current Version | Previous Version | Graphics & Text | Print | Product List | Glossary On
Versions: 1 2 3 4 5 6 7 8 9 10 11 12 13 14 15 16 17 18 19 20 21 22 23 24 25 26 27 28 29 30 31 32 33 34 35 36 37 38 39 40 41 42 43 44 45 46 47 48 49 50
000
ASUS45 KSLC 250310
RWRUT

UTAH REGIONAL WEATHER ROUNDUP
NATIONAL WEATHER SERVICE SALT LAKE CITY UT
900 PM MDT FRI MAR 24 2017

UTZ001>011-023>025-250400-

NORTHERN UTAH

CITY           SKY/WX    TMP DP  RH WIND       PRES   REMARKS
BRIGHAM CITY     N/A     53  34  48 CALM      30.02F
HILL AFB       MOCLDY    49  33  54 S9        30.03S
LOGAN          CLOUDY    51  37  58 S5        30.02F
OGDEN          CLOUDY    49  35  58 CALM      30.02F
SALT LAKE CITY MOCLDY    54  36  50 S7        30.01F
WENDOVER       CLOUDY    55  34  45 VRB3      30.01R
HEBER CITY     MOCLDY    45  28  53 E5        30.08S

$$

UTZ011>015-024>027-250400-

CENTRAL/NORTHEAST UTAH

CITY           SKY/WX    TMP DP  RH WIND       PRES   REMARKS
PROVO AIRPORT  PTCLDY    50  37  61 SE3       30.07F
MOAB/CANYONLAN CLEAR     52  23  32 W7        30.10S
DELTA          PTCLDY    46  32  57 SE6       30.05F
PRICE          MOCLDY    45  36  70 NE8       30.14R
RICHFIELD      CLEAR     50  34  53 SE6       30.10S
ROOSEVELT      CLEAR     50  36  57 CALM      30.13S
VERNAL         CLEAR     47  32  56 W3        30.12R

$$

UTZ013>016-019>022-027-250400-

SOUTHERN UTAH

CITY           SKY/WX    TMP DP  RH WIND       PRES   REMARKS
BRYCE CANYON   CLEAR     41  22  46 S8        30.23R
CEDAR CITY     CLEAR     46  28  49 W8        30.11S
MILFORD        CLEAR     53  24  32 S18       30.07R
ST GEORGE      MOCLDY    62  32  32 SE5       30.09R
HANKSVILLE     PTCLDY    50  27  40 E6        30.12S
KANAB          CLEAR     46  36  66 CALM      30.19S
BLANDING       CLEAR     46  20  35 W7        30.23R

$$

REGIONAL REPORTS     COLORADO/ARIZONA

CITY           SKY/WX    TMP DP  RH WIND       PRES   REMARKS
CRAIG, CO      CLEAR     40  24  53 CALM      30.15R
GRAND JUNCTION CLEAR     51  27  39 E5        30.11R
RIFLE, CO      CLEAR     47  27  45 E3        30.14R
MONTROSE, CO   CLEAR     46  30  53 SE10      30.18R
CORTEZ, CO     CLEAR     44  28  53 CALM      30.17R
COLORADO CITY    N/A     46  36  66 CALM      30.18S
PAGE, AZ       CLEAR     56  32  40 CALM      30.13S
GRAND CANYON   CLEAR     39  33  79 CALM      30.23S
KINGMAN, AZ    CLEAR     54  22  28 S8        30.13S
FLAGSTAFF, AZ  CLEAR     38  32  79 CALM      30.25R

$$

REGIONAL REPORTS    NEVADA/IDAHO/WYOMING

CITY           SKY/WX    TMP DP  RH WIND       PRES   REMARKS
LAS VEGAS, NV  PTCLDY    73  24  16 SW12      29.99S
ELY, NY        CLOUDY    50  22  33 SE17G25   30.06R
ELKO, NV       LGT RAIN  45  39  79 W15       30.08R
POCATELLO, ID  CLOUDY    50  30  46 S7        30.03S
BURLEY, ID     LGT RAIN  47  42  83 W13G18    30.03R
FORT BRIDGER,    N/A     42  34  71 N5        30.14S
EVANSTON, WY   CLOUDY    41  30  65 W7        30.10S
ROCK SPRINGS,  CLOUDY    44  31  60 S5        30.11R
KEMMERER, WY     N/A     34  25  69 N9        30.12S WCI  26

$$



USA.gov is the U.S. government's official web portal to all federal, state and local government web resources and services.